Date String (YYYY-MM-DD hh:mm:ss) UTC,Instrument flags,Ambient pressure (hPa),Sample flow (lpm),Bypass flow (lpm),Sample temperature (°C),Ambient temperature (°C),ASC tube jacket temperature (°C),LED temperature (°C),Box temperature (°C),Sample RH (%),Span deviation,Mass concentration (μg/m³),Mass concentration (μg/m³),Mass concentration (μg/m³)
DateTimeUTC,F1_M11,P_M11,Q1_M11,Q2_M11,T1_M11,T2_M11,T3_M11,T4_M11,T5_M11,U1_M11,ZSPAN_M11,X2_M11,X0_M11,X1_M11
2022-03-05 04:00:00,,0814.3,4.99,0.00,28.7,27.9,00.0,37.7,30.5,09.6,0000.0,0004.08,0011.54,0003.18
2022-03-05 04:01:00,,0814.4,5.02,0.00,28.7,27.9,00.0,37.7,30.5,09.5,0000.0,0004.09,0010.83,0003.18
2022-03-05 04:02:00,,0814.4,4.98,0.00,28.7,28.0,00.0,37.7,30.5,09.6,0000.0,0004.09,0010.50,0003.17
2022-03-05 04:03:00,,0814.3,5.00,0.00,28.7,28.0,00.0,37.7,30.5,09.6,0000.0,0004.09,0010.67,0003.17
2022-03-05 04:04:00,,0814.3,5.00,0.00,28.7,28.0,00.0,37.7,30.5,09.6,0000.0,0004.09,0010.17,0003.18
2022-03-05 04:05:00,,0814.3,4.99,0.00,28.7,28.0,00.0,37.7,30.6,09.6,0000.0,0004.07,0009.95,0003.20
2022-03-05 04:06:00,,0814.3,5.02,0.00,28.7,28.0,00.0,37.7,30.5,09.7,0000.0,0004.05,0010.30,0003.23
2022-03-05 04:07:00,,0814.4,4.99,0.00,28.8,28.0,00.0,37.7,30.5,09.8,0000.0,0004.09,0010.50,0003.26
2022-03-05 04:08:00,,0814.3,5.01,0.00,28.8,28.0,00.0,37.7,30.5,09.9,0000.0,0004.14,0010.51,0003.30
2022-03-05 04:09:00,,0814.3,5.01,0.00,28.8,28.0,00.0,37.7,30.5,10.0,0000.0,0004.20,0010.62,0003.36
2022-03-05 04:10:00,,0814.4,4.98,0.00,28.8,28.0,00.0,37.7,30.5,10.0,0000.0,0004.23,0011.00,0003.40
2022-03-05 04:11:00,,0814.4,5.01,0.00,28.8,28.0,00.0,37.7,30.5,09.9,0000.0,0004.29,0011.13,0003.42
2022-03-05 04:12:00,,0814.4,4.99,0.00,28.7,28.0,00.0,37.7,30.5,10.0,0000.0,0004.33,0011.12,0003.45
2022-03-05 04:13:00,,0814.3,5.00,0.00,28.7,27.9,00.0,37.7,30.5,10.0,0000.0,0004.34,0011.15,0003.46
2022-03-05 04:14:00,,0814.3,5.00,0.00,28.7,27.9,00.0,37.7,30.5,10.1,0000.0,0004.36,0011.64,0003.47
2022-03-05 04:15:00,,0814.3,5.01,0.00,28.7,27.9,00.0,37.7,30.5,10.0,0000.0,0004.34,0011.39,0003.49
2022-03-05 04:16:00,,0814.2,5.00,0.00,28.7,27.9,00.0,37.7,30.5,10.0,0000.0,0004.33,0011.23,0003.50
2022-03-05 04:17:00,,0814.2,4.99,0.00,28.7,27.9,00.0,37.7,30.5,10.1,0000.0,0004.35,0011.18,0003.49
2022-03-05 04:18:00,,0814.4,5.00,0.00,28.7,27.9,00.0,37.7,30.5,10.1,0000.0,0004.35,0010.34,0003.47
2022-03-05 04:19:00,,0814.3,5.00,0.00,28.7,27.9,00.0,37.7,30.4,10.1,0000.0,0004.33,0010.54,0003.45
2022-03-05 04:20:00,,0814.2,5.00,0.00,28.7,27.9,00.0,37.7,30.4,10.2,0000.0,0004.29,0010.97,0003.41
2022-03-05 04:21:00,,0814.4,4.99,0.00,28.7,27.9,00.0,37.7,30.5,10.3,0000.0,0004.25,0011.37,0003.37
2022-03-05 04:22:00,,0814.2,5.02,0.00,28.7,27.9,00.0,37.7,30.4,10.3,0000.0,0004.18,0011.79,0003.36
2022-03-05 04:23:00,,0814.2,4.99,0.00,28.7,27.9,00.0,37.7,30.4,10.5,0000.0,0004.17,0011.98,0003.35
2022-03-05 04:24:00,,0814.3,5.02,0.00,28.7,27.9,00.0,37.7,30.4,10.7,0000.0,0004.22,0012.13,0003.36
2022-03-05 04:25:00,,0814.2,4.99,0.00,28.7,27.9,00.0,37.7,30.4,10.6,0000.0,0004.29,0012.40,0003.38
2022-03-05 04:26:00,,0814.2,5.00,0.00,28.7,27.9,00.0,37.7,30.5,10.3,0000.0,0004.35,0012.35,0003.40
2022-03-05 04:27:00,,0814.2,5.00,0.00,28.7,27.9,00.0,37.7,30.5,10.3,0000.0,0004.40,0012.65,0003.41
2022-03-05 04:28:00,,0814.2,4.99,0.00,28.7,27.9,00.0,37.7,30.5,10.5,0000.0,0004.47,0013.31,0003.44
2022-03-05 04:29:00,,0814.3,5.00,0.00,28.7,27.9,00.0,37.7,30.5,10.6,0000.0,0004.51,0013.44,0003.48
2022-03-05 04:30:00,,0814.3,4.99,0.00,28.7,27.9,00.0,37.7,30.5,10.6,0000.0,0004.53,0013.47,0003.51
2022-03-05 04:31:00,,0814.3,5.01,0.00,28.7,27.9,00.0,37.7,30.5,10.6,0000.0,0004.56,0013.38,0003.54
2022-03-05 04:32:00,,0814.3,4.99,0.00,28.7,27.9,00.0,37.7,30.5,10.7,0000.0,0004.61,0014.13,0003.58
2022-03-05 04:33:00,,0814.4,5.01,0.00,28.7,27.9,00.0,37.7,30.5,10.8,0000.0,0004.70,0014.42,0003.61
2022-03-05 04:34:00,,0814.4,4.99,0.00,28.7,27.9,00.0,37.7,30.5,10.9,0000.0,0004.76,0014.69,0003.64
2022-03-05 04:35:00,,0814.4,5.01,0.00,28.7,27.9,00.0,37.7,30.5,10.9,0000.0,0004.75,0015.04,0003.67
2022-03-05 04:36:00,,0814.4,4.99,0.00,28.7,27.9,00.0,37.7,30.5,11.0,0000.0,0004.75,0014.95,0003.70
2022-03-05 04:37:00,,0814.4,5.02,0.00,28.7,27.9,00.0,37.7,30.5,10.8,0000.0,0004.77,0015.47,0003.72
2022-03-05 04:38:00,,0814.4,5.00,0.00,28.7,27.9,00.0,37.7,30.5,10.6,0000.0,0004.76,0015.86,0003.75
2022-03-05 04:39:00,,0814.4,4.98,0.00,28.7,27.9,00.0,37.7,30.5,11.0,0000.0,0004.77,0015.41,0003.76
2022-03-05 04:40:00,,0814.4,5.01,0.00,28.7,27.9,00.0,37.7,30.5,10.9,0000.0,0004.80,0016.23,0003.77
2022-03-05 04:41:00,,0814.4,4.99,0.00,28.7,27.9,00.0,37.7,30.5,10.9,0000.0,0004.83,0016.38,0003.78
2022-03-05 04:42:00,,0814.4,5.00,0.00,28.7,27.9,00.0,37.7,30.5,11.0,0000.0,0004.84,0016.11,0003.79
2022-03-05 04:43:00,,0814.4,5.00,0.00,28.7,27.9,00.0,37.7,30.5,11.0,0000.0,0004.85,0014.65,0003.80
2022-03-05 04:44:00,,0814.4,4.99,0.00,28.7,27.9,00.0,37.7,30.5,10.9,0000.0,0004.86,0013.87,0003.81
2022-03-05 04:45:00,,0814.4,5.01,0.00,28.7,27.9,00.0,37.7,30.5,10.9,0000.0,0004.87,0013.84,0003.82
2022-03-05 04:46:00,,0814.4,4.99,0.00,28.7,27.9,00.0,37.7,30.5,10.9,0000.0,0004.90,0013.56,0003.82
2022-03-05 04:47:00,,0814.9,4.99,0.00,28.7,27.9,00.0,37.7,30.5,11.0,0000.0,0005.00,0013.51,0003.82
2022-03-05 04:48:00,,0815.0,5.02,0.00,28.7,28.0,00.0,37.7,30.5,11.0,0000.0,0005.01,0012.89,0003.81
2022-03-05 04:49:00,,0815.0,4.99,0.00,28.7,28.0,00.0,37.7,30.5,11.0,0000.0,0004.96,0012.05,0003.78
2022-03-05 04:50:00,,0815.0,5.00,0.00,28.7,28.0,00.0,37.7,30.5,11.1,0000.0,0004.94,0011.80,0003.78
2022-03-05 04:51:00,,0815.0,5.01,0.00,28.7,28.0,00.0,37.7,30.5,11.1,0000.0,0004.90,0010.82,0003.77
2022-03-05 04:52:00,,0815.1,4.99,0.00,28.7,28.0,00.0,37.7,30.5,11.2,0000.0,0004.88,0010.87,0003.78
2022-03-05 04:53:00,,0814.7,5.01,0.00,28.7,27.9,00.0,37.7,30.5,11.3,0000.0,0004.87,0011.06,0003.77
2022-03-05 04:54:00,,0814.9,5.00,0.00,28.7,27.9,00.0,37.7,30.5,11.5,0000.0,0004.84,0010.93,0003.78
2022-03-05 04:55:00,,0814.9,5.00,0.00,28.7,27.9,00.0,37.7,30.5,11.5,0000.0,0004.78,0010.81,0003.79
2022-03-05 04:56:00,,0814.8,4.99,0.00,28.7,27.9,00.0,37.7,30.4,11.6,0000.0,0004.76,0010.39,0003.81
2022-03-05 04:57:00,,0814.6,5.01,0.00,28.7,27.9,00.0,37.7,30.4,11.6,0000.0,0004.73,0010.40,0003.81
2022-03-05 04:58:00,,0814.8,4.99,0.00,28.7,27.9,00.0,37.7,30.4,11.8,0000.0,0004.65,0010.00,0003.82
2022-03-05 04:59:00,,0814.8,5.00,0.00,28.7,27.9,00.0,37.7,30.4,11.9,0000.0,0004.62,0009.85,0003.84
